Αρχική σελίδα
METAR-TAF:

METAR-TAF

Αεροδρόμια :

Elkhart-Morton County Airport

Elkhart, Κάνσας, Ηνωμένες Πολιτείες Αμερικής

γεωγραφικό πλάτος: 37-00N, γεωγραφικό μήκος: 101-54W, υψόμετρο: 1099 μ

Παρών καιρός

Η αναφορά έγινε 21 λεπτά πριν, στις 10:55 UTC
Άνεμος 25 kt από Β με ριπές μέχρι 31 kt
Θερμοκρασία 4°C
Υγρασία 75%
Πίεση 1014 hPa
Ορατότητα: 16.1 χλμ
Καθαρός ουρανός

METAR: KEHA 131055Z AUTO 35025G31KT 10SM CLR 04/00 A2993 RMK AO2 T00370000

Χρόνος: 05:16 (11:16 UTC)


TAF: λείπει

Μετεωρολογικές αναφορές και προγνώσεις για περισσότερα από 4000 αεροδρόμια (δελτία METAR και TAF).

Οι διαθέσιμοι σταθμοί απεικονίζονται στο χάρτη με κίτρινες και κόκκινες κουκκίδες.

Μετακινήστε το ποντίκι πάνω από τις κουκκίδες για να δείτε το όνομα του σταθμού.

Στη συνέχεια, κάντε κλικ για να δείτε τις μετεωρολογικές αναφορές και τις προγνώσεις καιρού.

Για να αλλάξετε το χάρτη: κάντε κλικ στα πράσινα κουμπιά με τον μαύρο σταυρό για να ζουμάρετε, στο πράσινο κουμπί με την παύλα για να αφαιρέσετε το ζουμ ή στα πράσινα βέλη για να αντιπαραβάλλετε χάρτες.


METAR-TAF: